Location: Nordegg
(52.4712°N, 116.0743°W)
Time: 02:39:19
(UTC+00:00)

Tiangong - Visible Passes

Search period start: 07 December 2021 00:00
Search period end: 17 December 2021 00:00
Orbit: 379 x 384 km, 41.5° (Epoch: 06 December)

Date Brightness Start Highest point End Pass type
(mag) Time Alt. Az. Time Alt. Az. Time Alt. Az.
13 Dec 3.8 01:55:36 10° SSW 01:56:41 11° S 01:56:41 11° S visible
14 Dec 4.0 00:56:02 10° S 00:56:22 10° S 00:56:41 10° SSE visible
15 Dec 3.8 01:30:38 10° SSW 01:31:52 12° S 01:33:06 10° SSE visible
16 Dec 3.9 00:30:23 10° SSW 00:31:28 11° S 00:32:33 10° SSE visible
